Home > Weather > Kortrijk > Past weeks

Flag for Belgium Weather for the Past 2 Weeks in Kortrijk, Belgium

Now
63 °F

Passing clouds.


Feels Like: 63 °F
Forecast: 43 / 66 °F
Wind: 5 mph from Southeast

Location: Lille Airport

Current Time: May 4, 2016 at 6:11:48 PM

Latest Report: May 4, 2016 at 5:30 PM


Visibility: N/A

Pressure: 30.30 "Hg

Humidity: 32%

Dew Point: 32 °F

Location of KortrijkLocation

Historic Weather in Kortrijk — Graph

°F

Kortrijk Temperature Yesterday

Maximum temperature yesterday: 59 °F (at 3:00 PM)
Minimum temperature yesterday: 45 °F (at 5:30 AM)
Average temperature yesterday: 52 °F

High & Low Weather Summary for the Past Weeks

 TemperatureHumidityPressure
High66 °F (Apr 21, 3:30 PM)93% (Apr 24, 9:00 AM)30.42 "Hg (Apr 24, 9:00 AM)
Low32 °F (Apr 28, 6:00 AM)31% (May 1, 5:00 PM)29.65 "Hg (Apr 25, 7:00 PM)
Average48 °F67%30.08 "Hg
* Reported Apr 19 4:00 PM — May 4 4:30 PM, Kortrijk, Weather by CustomWeather, © 2016

Note: Actual official high and low records may vary slightly from our data, if they occured in-between our weather recording intervals... More about our weather records

Advertising

Kortrijk Weather History for the Previous 24 Hours

Scroll right to see more
 ConditionsComfort  
Time TempWeatherWind HumidityBarometerVisibility
4:30 PM
Wed, May 4
63 °FPassing clouds.7 mph37%30.30 "HgN/A
4:00 PM63 °FSunny.3 mph37%30.33 "Hg10 mi
3:30 PM63 °FSunny.2 mph39%30.33 "Hg10 mi
3:00 PM63 °FPassing clouds.6 mph39%30.33 "HgN/A
2:30 PM61 °FPassing clouds.7 mph39%30.36 "HgN/A
1:30 PM61 °FPassing clouds.5 mph42%30.36 "HgN/A
1:00 PM61 °FPassing clouds.5 mph39%30.36 "HgN/A
12:30 PM59 °FPassing clouds.7 mph42%30.36 "HgN/A
12:00 PM59 °FPassing clouds.9 mph45%30.39 "HgN/A
11:30 AM57 °FPassing clouds.7 mph41%30.39 "HgN/A
11:00 AM57 °FPassing clouds.7 mph48%30.39 "HgN/A
10:30 AM55 °FSunny.7 mph47%30.39 "Hg10 mi
10:00 AM54 °FSunny.7 mph58%30.39 "Hg10 mi
9:30 AM52 °FSunny.5 mph62%30.39 "Hg10 mi
9:00 AM48 °FSunny.3 mph71%30.39 "Hg10 mi
8:30 AM46 °FSunny.1 mph76%30.39 "Hg10 mi
8:00 AM45 °FSunny.1 mph81%30.39 "Hg10 mi
7:00 AM39 °FClear.1 mph93%30.36 "Hg10 mi
6:30 AM39 °FClear.No wind87%30.36 "Hg10 mi
6:00 AM37 °FClear.No wind93%30.36 "Hg10 mi
5:30 AM39 °FClear.No wind87%30.36 "Hg10 mi
5:00 AM39 °FClear.No wind87%30.36 "Hg10 mi
4:30 AM39 °FClear.2 mph87%30.36 "Hg10 mi
4:00 AM41 °FClear.No wind81%30.36 "Hg10 mi
3:30 AM41 °FClear.No wind81%30.36 "Hg10 mi
3:00 AM41 °FClear.No wind81%30.36 "Hg10 mi
2:30 AM43 °FClear.2 mph76%30.36 "Hg10 mi
2:00 AM43 °FClear.1 mph76%30.39 "Hg10 mi
1:30 AM43 °FClear.No wind76%30.39 "Hg10 mi
1:00 AM45 °FClear.No wind71%30.39 "Hg10 mi
12:30 AM45 °FClear.3 mph71%30.36 "Hg10 mi
12:00 AM45 °FClear.5 mph71%30.36 "Hg10 mi
11:30 PM
Tue, May 3
46 °FClear.6 mph66%30.36 "Hg10 mi
11:00 PM46 °FClear.5 mph66%30.36 "Hg10 mi
10:30 PM48 °FClear.7 mph66%30.36 "Hg10 mi
10:00 PM50 °FPartly sunny.9 mph62%30.36 "HgN/A
9:30 PM52 °FSunny.3 mph58%30.33 "Hg10 mi
9:00 PM54 °FSunny.6 mph51%30.33 "Hg10 mi
8:30 PM54 °FSunny.7 mph51%30.33 "Hg10 mi
8:00 PM55 °FSunny.9 mph47%30.33 "Hg10 mi
7:30 PM55 °FSunny.12 mph47%30.30 "Hg10 mi
7:00 PM57 °FSunny.9 mph48%30.30 "Hg10 mi
6:30 PM59 °FPassing clouds.7 mph42%30.30 "HgN/A
6:00 PM59 °FPassing clouds.9 mph39%30.30 "HgN/A
Weather by CustomWeather, © 2016

See weather overviewHow to use our weather pages